Notices

What's New in latest Release from April 7th, 2021:

- Updated Glossary, including Speed of Maximum Gust, and Total Hourly Precipitation

- Updated national and regional climate services offices contacts and prices information

- Addition of station inventory lists for 1981-2010, 1971-2000, and 1961-1990 Normals.

If you haven't already, please take our survey and provide feedback about our website: https://eccc.sondage-survey.ca/f/LanguageSelection.aspx?s=442ca660-fcf1-47c0-95a9-59707d6fd709

Hourly Data Report for August 27, 2017

TORONTO CITY
ONTARIO

43°40'00.000" N
79°24'00.000" W
112.50 m
6158355
71508
XTO

Download Data

Hourly Data (August 2017)
Hourly Data Report for August 27, 2017
TIME
LST
Temp Definition
°C
Dew Point Definition
°C
Rel Hum Definition
%
Precip. Amount Definition
mm

Wind Dir Definition
10's deg

Wind Spd Definition
km/h
Visibility Definition
km
Stn Press Definition
kPa
Hmdx Definition


Wind Chill Definition


Weather Definition


00:00 15.6 7.4 58 0.0 LegendMM LegendMM   101.20     LegendNANA
01:00 15.8 7.7 58 0.0 LegendMM LegendMM   101.18     LegendNANA
02:00 15.5 8.2 62 0.0 LegendMM LegendMM   101.19     LegendNANA
03:00 14.1 8.3 68 0.0 LegendMM LegendMM   101.19     LegendNANA
04:00 13.6 8.0 69 0.0 LegendMM LegendMM   101.18     LegendNANA
05:00 13.6 7.5 67 0.0 LegendMM LegendMM   101.18     LegendNANA
06:00 13.9 9.0 72 0.0 LegendMM LegendMM   101.18     LegendNANA
07:00 15.4 9.1 66 0.0 LegendMM LegendMM   101.20     LegendNANA
08:00 17.8 10.7 63 0.0 LegendMM LegendMM   101.20     LegendNANA
09:00 19.1 11.3 60 0.0 LegendMM LegendMM   101.21     LegendNANA
10:00 19.9 9.9 53 0.0 LegendMM LegendMM   101.22     LegendNANA
11:00 19.8 9.5 51 0.0 LegendMM LegendMM   101.21     LegendNANA
12:00 20.3 8.4 46 0.0 LegendMM LegendMM   101.18     LegendNANA
13:00 20.4 8.3 46 0.0 LegendMM LegendMM   101.14     LegendNANA
14:00 21.2 8.6 44 0.0 LegendMM LegendMM   101.11     LegendNANA
15:00 20.5 8.9 48 0.0 LegendMM LegendMM   101.03     LegendNANA
16:00 20.2 8.1 46 0.0 LegendMM LegendMM   100.96     LegendNANA
17:00 19.7 8.5 48 0.0 LegendMM LegendMM   100.96     LegendNANA
18:00 19.1 9.5 54 0.0 LegendMM LegendMM   100.94     LegendNANA
19:00 18.6 9.8 57 0.0 LegendMM LegendMM   100.93     LegendNANA
20:00 18.3 11.0 62 0.0 LegendMM LegendMM   100.96     LegendNANA
21:00 18.3 11.6 65 0.0 LegendMM LegendMM   100.92     LegendNANA
22:00 18.4 11.9 66 0.0 LegendMM LegendMM   100.95     LegendNANA
23:00 18.6 13.0 70 0.0 LegendMM LegendMM   100.93     LegendNANA

Notes on Data Quality.

Legend

  • E = Estimated
  • M = Missing
  • NA = Not Available*
  • [empty] = Indicates an unobserved value
Date modified: